Weather in San Marino

San Marino     43°55′56″N   12°26′55″E
temp.,
°C
wind,
m/s
gust,
m/s
humid.,
%
clouds,
%
prec.,
mm/h
press.,
hPa
HPBL,
m
27 september, mon
mon2723:00+19wsw11864 0.6 101720
02:00+18wnw22925 2.0 101760
05:00+17wsw119520 0.2 101733
08:00+18w019364 0.3 101749
11:00+22ene217628 0.1 1017515
14:00+23ne436968 1.6 1016409
17:00+22ene2376100 0.9 1016488
20:00+19sse229095 1.1 101737
28 september, tue
tue2823:00+19sw1185100 0.0 101818
02:00+18w228489 0.0 101926
05:00+18w228642 0.0 101938
08:00+18w228657 0.0 101962
11:00+22nnw326986 0.0 1020757
14:00+24ne33615 0.0 1019928
17:00+23ene33675 0.0 1018537
20:00+19ssw117781 0.0 101913
29 september, wed
wed2923:00+19ssw117197 0.0 101913
02:00+19wsw1161100 0.0 101814
05:00+18wsw1159100 0.0 101719
08:00+18sw1155100 0.0 101724
11:00+23ne1043100 0.0 1017384
14:00+25ne32412 0.0 1017893
17:00+22ene2357100 0.6 1017226
20:00+19sw1178100 3.1 101832
30 september, thu
thu3023:00+18w118472 1.8 101933
02:00+17w2389100 2.0 102085
05:00+17nnw259399 0.4 1021205
08:00+18ne487997 0.6 1022699
11:00+18ne686992 0.1 10241051
14:00+18nne7772100 0.1 10241059
17:00+18ne4569100 0.1 10241022
20:00+17ne366677 0.1 1024538
1 october, fri
fri123:00+17ne586464 0.0 1025597
02:00+16w22716 0.0 102475
05:00+14w36800 0.0 1023159
08:00+14w34795 0.0 1024147
11:00+19nw456153 0.0 1024942
14:00+20n55560 0.0 10221064
17:00+19n33585 0.0 1021726
20:00+16sw00755 0.0 102140